Location: Berka
(51.6876°N, 10.1109°E)
Time: 06:06:36
(UTC+00:00)

Daily predictions for brighter satellites

Satellite Brightness Start Highest point End
(mag) Time Altitude Azimuth Time Altitude Azimuth Time Altitude Azimuth
Cosmos 1603 3.7 18:33:02 10° SSW 18:38:40 85° ESE 18:44:19 10° NNE
NOSS 3-3 (A) 4.0 18:33:12 10° SW 18:39:12 85° SE 18:46:03 10° NE
NOSS 3-3 (C) 4.0 18:33:18 10° SW 18:39:17 84° SE 18:46:09 10° NE
Cosmos 2184 Rocket 4.0 18:34:07 10° N 18:40:27 83° E 18:46:41 10° SSE
ATLAS 5 CENTAUR R/B 2.6 18:37:53 10° S 18:41:18 24° ESE 18:45:02 10° ENE
STARLINK-1241 3.7 18:37:23 10° WNW 18:41:33 78° N 18:45:42 10° E
Cosmos 2058 Rocket 4.0 18:37:40 10° SSE 18:41:33 29° E 18:45:28 10° NNE
STARLINK-1239 3.7 18:42:20 10° WNW 18:46:30 79° N 18:50:39 10° E
Cosmos 1726 Rocket 3.9 18:42:36 10° SSE 18:46:50 47° E 18:51:07 10° NNE
Aureole 1 Rocket 4.2 18:43:35 10° S 18:50:34 50° ESE 18:56:03 10° NE
Cosmos 1943 Rocket 4.4 18:46:48 10° NW 18:51:16 25° WSW 18:55:44 10° SSW
STARLINK-1240 3.7 18:47:19 10° WNW 18:51:30 81° NNE 18:55:39 10° E
Cosmos 1825 Rocket 3.8 18:47:07 10° NNW 18:51:31 77° W 18:55:51 10° S
FREGAT/IRIS 2.6 18:49:10 10° S 18:51:53 72° W 18:54:37 10° NNW
SJ-6B 2.9 18:47:59 10° SSE 18:52:07 78° ENE 18:56:16 10° NNW
Meteor 1-16 Rocket 4.1 18:46:43 10° S 18:52:08 75° E 18:57:47 10° NNE
Cosmos 921 Rocket 3.2 18:48:37 10° NNW 18:52:44 51° ENE 18:56:49 10° SE
H-2A R/B 2.3 18:51:00 10° S 18:56:10 73° WSW 19:01:14 10° NNW
STARLINK-1216 3.7 18:52:18 10° WNW 18:56:29 83° NNE 19:00:26 11° E
Cosmos 1461 3.2 18:52:10 10° NW 18:56:41 79° SW 19:01:20 10° SE
Resurs 01 Rocket 2.3 18:54:41 10° SE 18:58:45 37° ENE 19:02:50 10° N
ATLAS 2AS CENTAUR R/B 3.2 18:52:37 10° NW 19:00:13 67° SW 19:07:10 10° SSE
SeaSat 1 2.7 18:55:37 10° NNE 19:00:34 74° NW 19:05:30 10° SW
STARLINK-1237 3.6 18:57:16 10° WNW 19:01:27 85° NNE 19:05:12 12° ESE
Cosmos 2228 3.0 18:57:19 10° S 19:01:37 75° E 19:06:00 10° NNE
Nadezhda 1 Rocket 4.1 18:55:32 10° S 19:01:50 65° E 19:08:06 10° NNE
Cosmos 2154 Rocket 4.0 18:56:52 10° N 19:03:16 80° ENE 19:09:37 10° SSE
Cosmos 2251 Rocket 4.5 18:58:44 10° SW 19:04:00 54° WNW 19:09:18 10° NNE
Cosmos 1300 3.8 19:00:59 10° SE 19:04:06 24° E 19:07:14 10° NE
Cosmos 2369 Rocket 4.3 19:00:02 10° NW 19:04:43 27° WSW 19:09:21 10° SSW
CZ-2C R/B 3.3 19:00:10 10° S 19:04:58 67° WSW 19:09:43 10° NNW
STARLINK-1202 3.6 19:02:17 10° WNW 19:06:28 87° NNE 19:10:01 14° ESE
USA 186 2.8 19:05:06 10° S 19:08:17 47° W 19:11:20 10° NNW
Ariane Rocket 4.0 19:06:26 10° S 19:11:20 48° W 19:16:15 10° NNW
BREEZE M DEB (TANK) 4.4 19:03:00 10° SW 19:11:58 36° SSE 19:14:49 14° E
Cosmos 1140 Rocket 3.7 19:07:38 10° S 19:12:36 48° ESE 19:17:33 10° NE
RESURS DK-1 4.1 19:09:52 10° N 19:13:04 21° NE 19:15:51 12° E
Cosmos 1953 Rocket 4.0 19:09:26 10° NNW 19:13:54 68° W 19:18:21 10° S
SL-4 R/B 1.6 19:10:34 10° WSW 19:13:54 56° SSE 19:16:52 13° E
Cosmos 1703 4.0 19:10:55 10° NNW 19:14:48 55° W 19:18:41 10° S
Cosmos 2058 4.1 19:12:05 10° N 19:15:35 26° ENE 19:17:51 17° ESE
STARLINK-1234 3.6 19:13:19 10° W 19:16:09 39° SSW 19:18:03 17° SE
STARLINK-1246 3.6 19:12:13 10° WNW 19:16:23 88° SSW 19:19:33 17° ESE
STARLINK-1209 3.7 19:13:57 10° W 19:16:45 37° SSW 19:18:37 17° SSE
Cosmos 1606 Rocket 3.8 19:12:34 10° SSW 19:17:01 75° WNW 19:21:31 10° N
Cosmos 1340 Rocket 2.8 19:14:19 10° S 19:18:18 62° E 19:22:18 10° NNE
STARLINK-1233 3.4 19:17:15 10° WNW 19:20:18 48° SSW 19:22:13 20° SE
STARLINK-1203 3.6 19:16:07 10° WNW 19:20:20 83° SSW 19:23:23 18° ESE
STARLINK-1212 3.4 19:17:42 10° WNW 19:20:44 48° SSW 19:22:37 20° SE
STARLINK-1105 3.4 19:18:08 10° WNW 19:21:12 48° SSW 19:23:04 20° SE
STARLINK-1224 3.6 19:17:13 10° WNW 19:21:23 85° SSW 19:24:21 19° ESE
STARLINK-1206 3.4 19:18:38 10° WNW 19:21:39 47° SSW 19:23:29 20° SE
STARLINK-1247 3.4 19:19:05 10° WNW 19:22:06 47° SSW 19:23:55 20° SE
STARLINK-1227 3.5 19:19:30 10° WNW 19:22:33 47° SSW 19:24:22 20° SE
Cosmos 614 Rocket 4.0 19:17:28 10° SSW 19:22:43 87° ESE 19:27:57 10° NNE
Cosmos 1190 Rocket 4.0 19:17:30 10° S 19:22:45 66° ESE 19:28:00 10° NNE
STARLINK-1218 3.5 19:19:58 10° WNW 19:23:00 46° SSW 19:24:47 21° SE
Spot 2 Rocket 4.2 19:19:28 15° SE 19:23:11 39° ENE 19:27:54 10° N
STARLINK-1226 3.5 19:20:25 10° W 19:23:27 46° SSW 19:25:13 21° SE
STARLINK-1254 3.5 19:20:51 10° W 19:23:53 46° SSW 19:25:40 21° SE
STARLINK-1215 3.5 19:21:20 10° W 19:24:22 45° SSW 19:26:06 21° SE
STARLINK-1231 3.5 19:21:48 10° W 19:24:48 45° SSW 19:26:31 21° SE
ERBS 2.4 19:21:25 10° WNW 19:24:49 70° NNE 19:26:51 22° ESE
Cosmos 1908 3.5 19:21:04 10° SSW 19:24:55 72° WNW 19:28:50 10° N
STARLINK-1232 3.5 19:22:43 10° W 19:25:42 44° SSW 19:27:24 22° SE
STARLINK-1217 3.5 19:23:07 10° W 19:26:08 44° SSW 19:27:49 22° SE
STARLINK-1225 3.6 19:22:13 10° WNW 19:26:23 82° SSW 19:29:09 20° ESE
STARLINK-1208 3.6 19:23:34 10° W 19:26:35 44° SSW 19:28:17 22° SE
STARLINK-1229 3.6 19:24:03 10° W 19:27:03 44° SSW 19:28:41 22° SE
STARLINK-1271 3.6 19:24:29 10° W 19:27:29 43° SSW 19:29:07 22° SSE
STARLINK-1270 3.6 19:24:58 10° W 19:27:57 43° SSW 19:29:33 22° SSE
STARLINK-1154 3.6 19:25:24 10° W 19:28:24 43° SSW 19:29:59 22° SSE
STARLINK-1197 3.6 19:26:19 10° W 19:29:19 42° SSW 19:30:52 23° SSE
STARLINK-1189 3.6 19:26:45 10° W 19:29:45 42° SSW 19:31:17 23° SSE
STARLINK-1198 3.6 19:27:14 10° W 19:30:12 42° SSW 19:31:44 23° SSE
STARLINK-1188 3.6 19:27:39 10° W 19:30:37 41° SSW 19:32:08 23° SSE
Cosmos 1726 4.1 19:27:21 10° SW 19:30:44 32° WNW 19:34:09 10° N
SL-24 R/B 3.7 19:26:58 10° NNE 19:31:07 82° ESE 19:34:52 10° SSW
STARLINK-1235 4.0 19:28:22 10° W 19:31:17 35° SSW 19:32:51 21° SSE
STARLINK-1230 3.6 19:27:11 10° WNW 19:31:21 79° SSW 19:33:55 22° ESE
STARLINK-1187 3.8 19:28:45 10° W 19:31:44 38° SSW 19:33:16 22° SSE
Cosmos 1076 Rocket 4.1 19:27:57 10° N 19:31:59 38° ENE 19:34:16 22° SE
DMSP B5D2-2 4.1 19:26:56 10° NNE 19:32:08 63° ESE 19:37:19 10° S
STARLINK-1199 3.7 19:29:37 10° W 19:32:36 41° SSW 19:34:04 24° SSE
STARLINK-1191 3.7 19:30:04 10° W 19:33:03 40° SSW 19:34:30 24° SSE
STARLINK-1210 3.7 19:30:31 10° W 19:33:30 40° SSW 19:34:56 24° SSE
Cosmos 1943 4.1 19:28:08 10° SW 19:33:40 53° NW 19:39:17 10° NNE
STARLINK-1221 3.7 19:30:59 10° W 19:33:58 40° SSW 19:35:23 24° SSE
STARLINK-1219 3.7 19:31:25 10° W 19:34:23 40° SSW 19:35:49 24° SSE
STARLINK-1222 3.7 19:31:53 10° W 19:34:51 39° SSW 19:36:15 24° SSE
STARLINK-1211 3.7 19:32:21 10° W 19:35:19 39° SSW 19:36:42 24° SSE
STARLINK-1214 3.8 19:32:46 10° W 19:35:45 39° SSW 19:37:06 24° SSE
Abrixas rocket 3.4 19:33:21 10° W 19:35:54 26° SSW 19:36:49 22° SSE
STARLINK-1245 3.8 19:33:16 10° W 19:36:13 38° SSW 19:37:32 25° SSE
STARLINK-1243 3.6 19:32:10 10° WNW 19:36:18 76° SSW 19:38:42 24° ESE
STARLINK-1238 3.8 19:33:41 10° W 19:36:39 38° SSW 19:37:59 25° SSE
Cosmos 1408 4.2 19:34:02 10° NNE 19:36:43 19° ENE 19:37:26 18° E
Cosmos 468 Rocket 4.3 19:31:58 10° NNW 19:37:02 50° ENE 19:40:10 22° SE
STARLINK-1205 3.8 19:34:38 10° W 19:37:34 37° SSW 19:38:51 25° SSE
STARLINK-1204 3.8 19:35:05 10° W 19:38:01 37° SSW 19:39:16 25° SSE
STARLINK-29 3.5 19:35:39 10° SW 19:38:39 36° SSE 19:39:26 31° ESE
STARLINK-1236 3.6 19:37:08 10° WNW 19:41:17 73° SSW 19:43:28 27° ESE
CZ-2C R/B 2.5 19:36:15 10° NNE 19:41:25 65° ESE 19:46:35 10° S
STARLINK-60 2.9 19:40:16 10° WSW 19:43:32 66° SSE 19:45:10 26° E
SPOT 5 4.0 19:43:20 19° E 19:44:50 23° ENE 19:48:17 10° N
Cosmos 1697 Rocket 3.7 19:39:57 10° NNW 19:45:08 35° NE 19:48:23 20° E
Terra 3.3 19:46:43 18° E 19:48:29 22° ENE 19:52:07 10° N
Cosmos 407 Rocket 3.8 19:44:17 10° SSW 19:49:24 70° WNW 19:54:33 10° NNE
ERS-1 Rocket 3.8 19:47:11 23° ESE 19:49:29 34° ENE 19:54:00 10° N
STARLINK-1269 3.7 19:47:06 10° WNW 19:51:13 67° SSW 19:53:02 31° SE
Cosmos 676 Rocket 3.9 19:46:29 10° SSW 19:51:44 70° ESE 19:56:58 10° NNE
Iridium 2 3.8 19:50:40 27° SSE 19:52:29 53° E 19:56:14 10° NNE
Cosmos 192 4.3 19:50:28 10° NNW 19:55:27 80° ENE 19:58:14 27° SSE
STARLINK-1200 3.7 19:52:04 10° WNW 19:56:11 64° SSW 19:57:48 34° SE
Cosmos-2242 4.3 19:56:38 22° E 19:56:38 22° E 19:59:58 10° NE
CZ-2C R/B 4.3 19:52:49 10° N 19:57:30 63° WNW 20:02:04 10° SSW
SL-24 R/B - RUBIN 2 4.4 19:53:58 10° SW 19:59:45 83° NW 20:06:16 10° NE
STARLINK-1192 3.8 19:57:04 10° WNW 20:01:10 60° SSW 20:02:36 36° SE
SL-16 R/B 4.3 20:00:34 10° NNW 20:04:06 16° NNE 20:07:38 10° ENE
COSMOS 2455 3.6 19:59:16 10° NW 20:05:01 46° WSW 20:09:32 16° S
STARLINK-1201 4.3 20:02:58 10° W 20:05:49 27° SW 20:06:17 26° SSW
STARLINK-1244 3.8 20:02:04 10° WNW 20:06:08 57° SSW 20:07:23 39° SSE
Cosmos 1656 3.7 20:02:44 10° NNW 20:08:28 69° ENE 20:11:09 32° SE
MOS 1 Rocket 3.9 20:05:19 10° N 20:10:41 71° WNW 20:16:07 10° SSW
STARLINK-1138 3.9 20:07:02 10° WNW 20:11:06 54° SSW 20:12:10 41° SSE
Cosmos 2322 Rocket 4.4 20:08:23 10° NNW 20:11:49 16° NNE 20:15:14 10° ENE
STPSAT 2 (USA 217) 4.5 20:07:38 10° SSW 20:12:03 64° ESE 20:16:32 10° NNE
Cosmos 1356 Rocket 4.3 20:12:13 32° E 20:12:13 32° E 20:15:54 10° NNE
Cosmos 1455 3.3 20:13:23 28° ENE 20:13:23 28° ENE 20:16:08 10° NNE
Cosmos 1954 Rocket 4.0 20:08:50 10° SSW 20:14:05 84° WNW 20:19:20 10° NNE
FALCON 9 DEB 3.2 20:10:56 10° SW 20:14:16 57° SSE 20:14:16 57° SSE
Cosmos 1980 Rocket 3.3 20:09:45 10° NNW 20:14:49 33° NE 20:17:17 23° E
IGS 5A 3.4 20:13:41 42° SE 20:14:57 69° ENE 20:19:05 10° N
STARLINK-1143 4.0 20:12:01 10° WNW 20:16:03 51° SSW 20:16:57 42° SSE
Cosmos 1892 2.6 20:12:10 10° N 20:16:04 80° E 20:17:06 48° SSE
ATLAS CENTAUR R/B 2.0 20:14:51 10° NNW 20:18:37 39° NE 20:19:27 34° ENE
STARLINK-52 3.7 20:15:51 10° SW 20:18:09 40° SW 20:18:09 40° SW
Cosmos 1741 Rocket 4.2 20:18:19 31° SSE 20:20:30 49° ESE 20:25:39 10° NNE
STARLINK-1241 4.0 20:17:03 10° WNW 20:21:03 48° SSW 20:21:46 43° S
Mayak 1.2 20:19:41 10° ENE 20:19:48 10° ENE 20:19:48 10° ENE
BREEZE M DEB (TANK) 3.6 20:18:37 10° SW 20:22:26 49° SE 20:33:57 10° ENE
Cosmos 1825 2.8 20:19:47 10° N 20:23:21 40° ENE 20:23:21 40° ENE
SPOT 1/Viking Rocket 3.5 20:21:21 35° SSE 20:23:36 77° ENE 20:28:51 10° NNW
CARTOSAT-1 3.8 20:22:53 44° ESE 20:23:43 51° ENE 20:27:56 10° N
CZ-4C R/B 3.2 20:18:13 10° NW 20:24:51 56° NE 20:29:17 26° ESE
ATLAS 5 CENTAUR R/B 2.1 20:21:12 10° WSW 20:25:27 61° NW 20:30:22 10° NE
STARLINK-1239 4.1 20:22:00 10° WNW 20:25:59 46° SSW 20:26:31 43° S
Cosmos 2208 Rocket 4.1 20:21:21 10° NNW 20:26:31 61° ENE 20:28:09 41° ESE
Cosmos 1763 Rocket 3.4 20:23:48 10° NNW 20:29:02 81° WSW 20:30:58 39° SSE
Cosmos 2344 4.5 20:21:54 10° NW 20:30:36 61° NNE 20:38:33 23° ESE
STARLINK-1240 4.1 20:27:00 10° WNW 20:30:56 43° SSW 20:31:18 42° SSW
Okean 3 Rocket 3.6 20:28:36 10° N 20:32:59 59° ENE 20:33:36 53° ESE
Cosmos 1766 Rocket 3.8 20:30:27 10° N 20:34:51 53° ENE 20:35:19 50° E
Resurs 01 Rocket 3.3 20:31:53 12° SSW 20:35:18 30° W 20:39:14 10° NNW
Cosmos 2218 Rocket 4.3 20:29:12 10° NNW 20:35:20 64° W 20:39:41 20° S
Cosmos 540 Rocket 3.5 20:30:26 10° NNW 20:35:36 63° ENE 20:36:54 47° ESE
STARLINK-1216 4.2 20:32:00 10° WNW 20:35:54 41° SSW 20:36:05 40° SSW
Meteor 2-12 Rocket 4.5 20:31:11 10° NNW 20:37:18 78° W 20:40:31 30° S
Cosmos 1300 4.4 20:36:10 10° SW 20:39:38 32° WNW 20:43:08 10° N
Iridium 4 Rocket 3.3 20:36:20 10° N 20:40:30 61° W 20:41:55 37° SSW
STARLINK-1237 4.4 20:36:59 10° WNW 20:40:50 38° SSW 20:40:51 38° SSW
Cosmos 1814 Rocket 4.1 20:35:55 10° NNW 20:41:18 69° ENE 20:42:40 49° SE
USA 234 3.3 20:35:25 10° ENE 20:41:46 51° SE 20:48:07 10° SW
Landsat 7 4.1 20:42:04 38° S 20:43:46 65° WSW 20:48:31 10° NNW
Cosmos 2278 4.0 20:38:34 10° NNW 20:44:10 56° NE 20:45:43 42° ESE
SAR-Lupe-2 4.5 20:41:08 10° N 20:44:35 47° WNW 20:46:11 27° SW
Cosmos 2082 Rocket 3.6 20:49:07 22° ENE 20:49:07 22° ENE 20:51:57 10° NE
Cosmos 1812 Rocket 4.1 20:46:09 24° SW 20:48:32 55° WNW 20:52:49 10° N
RESURS DK-1 2.3 20:47:24 10° NW 20:51:35 73° WSW 20:51:45 71° SW
Cosmos 2058 4.2 20:48:48 10° NNW 20:52:35 35° W 20:54:05 26° SW
SL-4 R/B 2.4 20:49:58 10° W 20:52:28 46° W 20:52:28 46° W
Cosmos 1833 Rocket 3.1 20:56:29 43° E 20:56:29 43° E 21:01:15 10° NE
USA 32 4.1 20:52:03 10° N 20:57:18 77° W 20:58:49 47° SSW
ASTEX 1 3.8 20:57:33 46° E 20:57:44 46° ENE 21:02:28 10° N
Cosmos 2151 3.0 20:54:12 10° NNW 20:58:24 72° W 20:58:42 68° SW
Meteor 2-10 Rocket 3.4 20:58:38 55° S 20:59:48 79° E 21:05:17 10° NNE
ERBS 4.4 20:58:06 10° W 20:59:49 20° WSW 20:59:49 20° WSW
BREEZE-M DEB (TANK) 4.5 21:02:02 10° W 21:02:11 11° W 21:02:11 11° W
Cosmos 1850 Rocket 4.0 21:02:16 27° SW 21:05:07 76° WNW 21:10:20 10° NNE
Cosmos 841 Rocket 3.6 21:02:00 10° NNW 21:07:17 71° WSW 21:08:12 58° SSW
COSMOS 2406 3.1 21:08:16 39° SSW 21:10:29 85° ESE 21:16:15 10° NNE
Cosmos 1408 3.7 21:08:29 10° NNW 21:11:46 40° W 21:11:46 40° W
Cosmos 1408 Rocket 3.6 21:10:41 10° N 21:14:52 74° NNE 21:14:52 74° NNE
Cosmos 1743 Rocket 4.3 21:12:41 10° N 21:16:28 44° NE 21:16:28 44° NE
Nadezhda 3 Rocket 3.9 21:15:55 49° S 21:17:50 87° E 21:24:09 10° N
Cosmos 1535 Rocket 4.4 21:14:02 10° N 21:20:13 75° ENE 21:21:17 61° SE
SPOT 5 3.2 21:22:33 48° WSW 21:22:42 48° W 21:26:55 10° NNW
Terra 1.9 21:25:36 63° WSW 21:25:50 64° WSW 21:30:36 10° NNW
Cosmos 2369 3.8 21:21:02 10° NW 21:26:36 61° WSW 21:27:19 56° SSW
ERS-1 Rocket 3.8 21:27:10 37° SW 21:28:13 41° W 21:32:59 10° NNW
Cosmos 1697 Rocket 2.9 21:23:51 10° NW 21:29:25 57° WSW 21:30:07 53° SW
Cosmos 2221 3.9 21:34:15 31° NE 21:34:15 31° NE 21:36:49 10° NNE
Cosmos-2242 3.9 21:33:27 44° W 21:33:51 45° WNW 21:38:04 10° N
Cosmos 1934 Rocket 4.0 21:40:52 10° NNW 21:47:07 74° W 21:48:02 63° SSW
Cosmos 1455 4.0 21:48:16 27° WNW 21:48:22 27° WNW 21:51:41 10° N
SL-16 R/B 2.7 21:44:10 10° NNW 21:49:40 48° NE 21:50:12 47° ENE
Cosmos 2084 4.2 21:45:45 10° NW 21:49:17 52° NNW 21:49:17 52° NNW
Cosmos 1842 Rocket 4.5 21:52:27 44° NNE 21:52:27 44° NNE 21:55:26 10° NNE
Cosmos 2360 Rocket 3.6 21:46:40 10° NNW 21:51:31 29° NE 21:53:01 25° ENE
Cosmos 2322 Rocket 2.8 21:51:54 10° NNW 21:57:22 47° NE 21:57:48 46° ENE
ATLAS CENTAUR R/B 3.4 21:53:59 10° WNW 21:55:38 21° WNW 21:55:38 21° WNW
Mayak -0.1 21:53:35 10° NNE 21:56:22 41° N 21:56:22 41° N
Cosmos 1825 4.5 21:55:52 10° NW 21:58:10 19° WNW 21:58:10 19° WNW
Cosmos 1980 Rocket 2.4 21:53:39 10° NW 21:59:03 59° WSW 21:59:03 59° WSW
Sich 1 4.3 21:57:38 10° N 22:00:41 35° NNE 22:00:41 35° NNE
Meteor 2-3 Rocket 4.2 21:57:11 10° NNW 22:02:44 51° W 22:03:11 50° WSW
Cosmos 1605 Rocket 3.8 21:57:23 10° NNW 22:03:34 82° W 22:03:58 77° SSW
Spot 4 4.2 22:07:05 62° NNW 22:07:05 62° NNW 22:11:08 10° NNW
Thor Agena Rocket 3.7 22:03:37 10° NNE 22:07:59 66° NNE 22:07:59 66° NNE
Cosmos 2333 Rocket 4.2 22:05:33 10° NNW 22:09:47 21° NNE 22:12:45 14° ENE
ATLAS 5 CENTAUR R/B 4.0 22:07:12 10° WNW 22:11:04 25° NNW 22:15:25 10° NE
CZ-4C R/B 3.1 22:06:45 10° NW 22:13:42 57° SW 22:14:28 55° SSW
ALOS 2 3.7 22:16:03 40° NNE 22:16:03 40° NNE 22:19:07 10° N
Cosmos 1339 Rocket 4.4 22:18:09 78° SW 22:18:34 84° W 22:25:03 10° N
Meteor 2-2 Rocket 4.3 22:24:52 76° N 22:24:52 76° N 22:30:05 10° NNE
USA 234 3.3 22:18:30 10° ENE 22:25:03 76° NNW 22:31:35 10° WSW
NOSS 2-1 (E) 4.4 22:21:00 10° NW 22:25:54 67° NE 22:25:56 67° NE
Cosmos 2082 Rocket 2.4 22:30:55 66° WNW 22:31:01 66° NW 22:36:42 10° NNE
Cosmos 1833 Rocket 3.7 22:38:05 32° W 22:39:55 42° NW 22:45:17 10° NNE
Cosmos 1633 Rocket 4.4 22:37:11 10° N 22:40:00 37° N 22:40:00 37° N
Cosmos 2219 Rocket 3.7 22:44:28 10° NNW 22:49:20 29° NE 22:50:59 25° ENE
Cosmos 773 Rocket 4.5 22:47:53 10° NNW 22:52:02 57° NNW 22:52:02 57° NNW
Cosmos 1607 3.9 22:55:17 79° NW 22:55:17 79° NW 23:01:32 10° NE
Cosmos 2061 Rocket 4.0 22:55:18 10° N 23:01:24 77° ENE 23:01:24 77° ENE
Cosmos 2237 4.4 22:58:32 10° NNW 23:03:42 68° N 23:03:42 68° N
Cosmos 968 Rocket 4.1 23:06:04 55° NNW 23:06:04 55° NNW 23:10:36 10° NNE
Cosmos 2322 4.2 23:06:41 10° NNW 23:12:18 53° NE 23:12:24 52° ENE
Cosmos 1459 Rocket 4.1 23:06:52 10° NNW 23:12:56 66° W 23:12:56 66° W
COSMOS 2428 3.8 23:09:22 10° NNW 23:14:42 38° NE 23:15:49 34° ENE
SL-16 R/B 4.2 23:17:35 20° E 23:20:18 27° NE 23:25:22 10° N
Cosmos 1864 Rocket 4.5 23:17:00 10° N 23:23:11 85° N 23:23:11 85° N
Cosmos 2233 Rocket 4.2 23:17:22 10° N 23:23:37 62° ENE 23:23:39 62° ENE
Meteor 1-20 Rocket 4.4 23:22:14 10° NNW 23:27:23 70° N 23:27:23 70° N
Cosmos 2016 Rocket 4.1 23:25:35 10° NNW 23:31:34 68° WNW 23:31:34 68° WNW
Cosmos 1725 Rocket 4.0 23:26:03 10° NNW 23:32:04 79° NW 23:32:04 79° NW
Mayak 1.5 23:30:57 10° NNW 23:32:38 12° NW 23:32:56 12° WNW
SL-16 R/B 3.5 23:28:31 10° NW 23:32:03 31° WNW 23:32:03 31° WNW
Cosmos 1802 Rocket 4.3 23:29:55 10° NNW 23:35:30 54° WNW 23:35:30 54° WNW
Cosmos 2360 Rocket 2.7 23:30:27 10° NNW 23:34:45 52° NW 23:34:45 52° NW
Cosmos 2322 Rocket 3.5 23:36:11 10° NW 23:39:36 31° WNW 23:39:36 31° WNW
CZ-2D R/B 4.2 23:39:15 10° NE 23:42:46 17° E 23:43:03 17° E
MOS 1-B Rocket 4.1 23:36:54 10° NNE 23:43:04 77° WNW 23:43:26 74° WSW
Cosmos 2123 Rocket 3.9 23:45:08 81° NNW 23:45:08 81° NNW 23:51:06 10° N
SJ 16-02 3.5 23:52:41 19° ENE 23:52:41 19° ENE 23:54:31 10° NE
